Вернуться в каталог

CZ-6A DEB

АктивенSSO
NORAD 54619·DEBRIS·🇨🇳 China

Запущен Nov 11, 2022 с Taiyuan Satellite Launch Center

Loading…

Ближайшие Пролёты (ближайшие 24 часа)

TLE

СвежийSource: Space-Track

Эпоха: Sep 14, 2026, 10:23 UTC

1 54619U 22151NV  26257.43328795  .00000966  00000-0  31171-3 0  9996
2 54619  98.7890 321.9586 0070773 126.5630 234.2099 14.40082787199963

Отслеживайте CZ-6A DEB в реальном времени с AllMySat

Download on the App Store